Weather Roundup
Issued by NWS Corpus Christi, TX

Home | Current Version | Previous Version | Text Only | Print | Product List | Glossary On
Versions: 1 2 3 4 5 6 7 8 9 10 11 12 13 14 15 16 17 18 19 20 21 22 23 24 25 26 27 28 29 30 31 32 33 34 35 36 37 38 39 40 41 42 43 44 45 46 47 48 49 50
000
ASUS44 KCRP 261810
HRRCRP

SOUTH TEXAS REGIONAL WEATHER ROUNDUP
NATIONAL WEATHER SERVICE CORPUS CHRISTI TX
100 PM CDT TUE SEP 26 2017


TXZ229>244-261900-
...CORPUS CHRISTI AREA OBSERVATIONS...

CITY           SKY/WX    TMP DP  RH WIND       PRES   REMARKS
CORPUS CHRISTI CLOUDY    89  76  65 SE18      29.83F HX 100
NAS CORPUS CHR CLOUDY    89  79  72 SE16      29.84F HX 104
ROCKPORT       CLOUDY    86  77  74 SE15      29.84F HX  97
KINGSVILLE ARP FAIR      91  78  65 E10G17    29.82F HX 106
KINGSVILLE NAS CLOUDY    93  76  57 SE14G22   29.81F HX 105
ALICE          LGT RAIN  82  70  66 SE10      29.82F
$$

...VICTORIA AREA OBSERVATIONS...

CITY           SKY/WX    TMP DP  RH WIND       PRES   REMARKS
PORT LAVACA    CLOUDY    84  75  74 E14       29.87F HX  93
VICTORIA       CLOUDY    79  74  84 SE5       29.88S THUNDER
BEEVILLE       FAIR      85  82  93 CALM      29.85F HX 102
PLEASANTON     LGT RAIN  80  73  80 SE3       29.88F
SAN ANTONIO    LGT RAIN  77  74  90 E8        29.91S
$$

...LAREDO AREA OBSERVATIONS...

CITY           SKY/WX    TMP DP  RH WIND       PRES   REMARKS
LAREDO         RAIN      81  77  88 E12       29.80F
COTULLA        LGT RAIN  78  78 100 E8        29.85F FOG
DEL RIO        CLOUDY    80  70  71 E10       29.87F
MCALLEN        MOSUNNY   86  74  67 SE20G25   29.81F HX  94
HEBBRONVILLE   CLOUDY    85  71  60 S25G33    29.83F HX  90
$$

...OTHER TEXAS OBSERVATIONS...

CITY           SKY/WX    TMP DP  RH WIND       PRES   REMARKS
BROWNSVILLE    MOSUNNY   90  75  61 SE20G26   29.81F HX 100
HOUSTON        PTSUNNY   88  72  58 VRB7      29.90F HX  94
COL. STATION   CLOUDY    86  72  62 E5        29.91F HX  92
AUSTIN         LGT RAIN  83  74  74 E9        29.89F
WACO           PTSUNNY   87  67  51 VRB5      29.91F HX  90
FORT WORTH     CLOUDY    88  66  48 CALM      29.93F HX  90
WICHITA FALLS  LGT RAIN  74  70  87 NE12      29.96
LUBBOCK        LGT RAIN  59  57  93 NE17      30.08R
EL PASO        MOSUNNY   79  58  48 E7        29.97F
$$

...MARINE OBSERVATIONS...

STATION/POSITION TIME  SKY/WX   TEMP    WIND        PRES    VSBY  WAVE   SWELL
                                AIR SEA DIR/SP/G                  HT/PER HT/PER
                 (UTC)          (F)     (DEG/KT/KT) (MB)    (MI)  (FT/S) (FT/S)
PORT ARANSAS     NOT AVBL
BUOY 90 E PORT A 1650            83 83   90/ 12/ 14 1011.8          3/ 5   2/ 6
BUOY 200 E PT IS 1650            84 85  120/ 10/ 10 1011.8          2/ 4   2/ 6
BUOY 15 E GALVES 1650            82 83   90/ 10/ 10 1012.9          1/ 5   2/ 5
$$



USA.gov is the U.S. government's official web portal to all federal, state and local government web resources and services.